When you browse on this site, cookies collect data to enhance your experience and personalize the content and advertising you see.
Visit our Privacy Policy to learn more. By continuing to use the site, you agree to this use of cookies and data.
  • In Hungary
  • List of Countries
  • For 7 days
  • Water Temperature
  • Weather Map
  • News
  • Weather Widgets
  • user-avatar
    Login

    Hourly Weather Boromo

    Today, 17 November, Sunday

    Time Temperature Precipitation Wind Pressure Humidity
    00:00 +29°C° 0 mm 1 mps 732 mmHg 24%
    01:00 +28°C° 0 mm 1 mps 732 mmHg 24%
    02:00 +28°C° 0 mm 1 mps 732 mmHg 25%
    03:00 +27°C° 0 mm 1 mps 731 mmHg 25%
    04:00 +27°C° 0 mm 1 mps 732 mmHg 26%
    05:00 +26°C° 0 mm 1 mps 732 mmHg 27%
    06:00 +26°C° 0 mm 1 mps 732 mmHg 28%
    07:00 +29°C° 0 mm 1 mps 733 mmHg 24%
    08:00 +32°C° 0 mm 1 mps 733 mmHg 20%
    09:00 +35°C° 0 mm 1 mps 734 mmHg 16%
    10:00 +38°C° 0 mm 2 mps 733 mmHg 15%
    11:00 +39°C° 0 mm 2 mps 733 mmHg 13%
    12:00 +41°C° 0 mm 2 mps 732 mmHg 12%
    13:00 +41°C° 0 mm 2 mps 731 mmHg 12%
    14:00 +42°C° 0 mm 3 mps 731 mmHg 12%
    15:00 +42°C° 0 mm 3 mps 730 mmHg 12%
    16:00 +39°C° 0 mm 2 mps 730 mmHg 14%
    17:00 +36°C° 0 mm 2 mps 730 mmHg 16%
    18:00 +33°C° 0 mm 1 mps 730 mmHg 19%
    19:00 +32°C° 0 mm 1 mps 731 mmHg 20%
    20:00 +31°C° 0 mm 1 mps 731 mmHg 21%
    21:00 +30°C° 0 mm 1 mps 732 mmHg 22%
    22:00 +30°C° 0 mm 1 mps 732 mmHg 23%
    23:00 +27°C° 0 mm 0 mps 732 mmHg 23%

    Tomorrow, 18 November, Monday

    Time Temperature Precipitation Wind Pressure Humidity
    00:00 +27°C° 0 mm 0 mps 732 mmHg 24%
    01:00 +26°C° 0 mm 0 mps 731 mmHg 25%
    02:00 +26°C° 0 mm 0 mps 731 mmHg 25%
    03:00 +25°C° 0 mm 0 mps 731 mmHg 26%
    04:00 +25°C° 0 mm 0 mps 731 mmHg 27%
    05:00 +24°C° 0 mm 0 mps 732 mmHg 28%
    06:00 +24°C° 0 mm 0 mps 732 mmHg 29%
    07:00 +27°C° 0 mm 0 mps 732 mmHg 25%
    08:00 +30°C° 0 mm 0 mps 733 mmHg 21%
    09:00 +33°C° 0 mm 0 mps 733 mmHg 17%
    10:00 +37°C° 0 mm 1 mps 733 mmHg 15%
    11:00 +40°C° 0 mm 1 mps 732 mmHg 13%
    12:00 +42°C° 0 mm 2 mps 732 mmHg 12%
    13:00 +42°C° 0 mm 2 mps 731 mmHg 11%
    14:00 +42°C° 0 mm 2 mps 731 mmHg 11%
    15:00 +42°C° 0 mm 2 mps 730 mmHg 11%
    16:00 +39°C° 0 mm 2 mps 730 mmHg 13%
    17:00 +37°C° 0 mm 2 mps 730 mmHg 15%
    18:00 +33°C° 0 mm 1 mps 730 mmHg 17%
    19:00 +32°C° 0 mm 1 mps 731 mmHg 19%
    20:00 +31°C° 0 mm 1 mps 731 mmHg 20%
    21:00 +30°C° 0 mm 1 mps 732 mmHg 21%
    22:00 +29°C° 0 mm 1 mps 732 mmHg 23%
    23:00 +28°C° 0 mm 1 mps 732 mmHg 24%

    Day after tomorrow, 19 November, Tuesday

    Time Temperature Precipitation Wind Pressure Humidity
    00:00 +26°C° 0 mm 0 mps 732 mmHg 25%
    01:00 +25°C° 0 mm 0 mps 731 mmHg 26%
    02:00 +25°C° 0 mm 0 mps 731 mmHg 27%
    03:00 +25°C° 0 mm 0 mps 731 mmHg 27%
    04:00 +26°C° 0 mm 1 mps 731 mmHg 28%
    05:00 +26°C° 0 mm 1 mps 732 mmHg 29%
    06:00 +25°C° 0 mm 1 mps 732 mmHg 30%
    07:00 +29°C° 0 mm 1 mps 733 mmHg 27%
    08:00 +32°C° 0 mm 1 mps 733 mmHg 23%
    09:00 +33°C° 0 mm 0 mps 734 mmHg 20%
    10:00 +36°C° 0 mm 0 mps 733 mmHg 17%
    11:00 +41°C° 0 mm 1 mps 733 mmHg 14%
    12:00 +43°C° 0 mm 1 mps 732 mmHg 11%
    13:00 +42°C° 0 mm 1 mps 732 mmHg 11%
    14:00 +42°C° 0 mm 1 mps 731 mmHg 11%
    15:00 +42°C° 0 mm 1 mps 730 mmHg 11%
    16:00 +39°C° 0 mm 1 mps 730 mmHg 13%
    17:00 +36°C° 0 mm 1 mps 730 mmHg 15%
    18:00 +33°C° 0 mm 1 mps 731 mmHg 18%
    19:00 +32°C° 0 mm 1 mps 731 mmHg 19%
    20:00 +31°C° 0 mm 1 mps 731 mmHg 20%
    21:00 +30°C° 0 mm 1 mps 732 mmHg 21%
    22:00 +30°C° 0 mm 1 mps 732 mmHg 22%
    23:00 +29°C° 0 mm 1 mps 732 mmHg 23%

    20 November, Wednesday

    Time Temperature Precipitation Wind Pressure Humidity
    00:00 +26°C° 0 mm 0 mps 732 mmHg 24%
    01:00 +26°C° 0 mm 0 mps 731 mmHg 26%
    02:00 +25°C° 0 mm 0 mps 731 mmHg 27%
    03:00 +24°C° 0 mm 0 mps 731 mmHg 29%
    04:00 +24°C° 0 mm 0 mps 731 mmHg 30%
    05:00 +26°C° 0 mm 1 mps 732 mmHg 31%
    06:00 +26°C° 0 mm 1 mps 732 mmHg 32%
    07:00 +27°C° 0 mm 0 mps 733 mmHg 28%
    08:00 +31°C° 0 mm 0 mps 733 mmHg 23%
    09:00 +34°C° 0 mm 0 mps 734 mmHg 19%
    10:00 +39°C° 0 mm 1 mps 733 mmHg 17%
    11:00 +41°C° 0 mm 1 mps 733 mmHg 14%
    12:00 +42°C° 0 mm 1 mps 732 mmHg 11%
    13:00 +42°C° 0 mm 1 mps 732 mmHg 11%
    14:00 +42°C° 0 mm 1 mps 731 mmHg 11%
    15:00 +42°C° 0 mm 2 mps 731 mmHg 11%
    16:00 +39°C° 0 mm 2 mps 731 mmHg 13%
    17:00 +36°C° 0 mm 1 mps 731 mmHg 15%
    18:00 +33°C° 0 mm 1 mps 731 mmHg 17%
    19:00 +32°C° 0 mm 1 mps 731 mmHg 17%
    20:00 +31°C° 0 mm 1 mps 732 mmHg 18%
    21:00 +30°C° 0 mm 1 mps 732 mmHg 19%
    22:00 +30°C° 0 mm 1 mps 732 mmHg 19%
    23:00 +29°C° 0 mm 1 mps 732 mmHg 20%

    21 November, Thursday

    Time Temperature Precipitation Wind Pressure Humidity
    00:00 +29°C° 0 mm 1 mps 732 mmHg 20%
    01:00 +28°C° 0 mm 1 mps 731 mmHg 21%
    02:00 +28°C° 0 mm 1 mps 731 mmHg 21%
    03:00 +27°C° 0 mm 1 mps 731 mmHg 21%
    04:00 +26°C° 0 mm 1 mps 731 mmHg 22%
    05:00 +26°C° 0 mm 1 mps 731 mmHg 23%
    06:00 +25°C° 0 mm 1 mps 731 mmHg 23%
    07:00 +29°C° 0 mm 1 mps 732 mmHg 20%
    08:00 +32°C° 0 mm 2 mps 732 mmHg 16%
    09:00 +36°C° 0 mm 3 mps 733 mmHg 13%
    10:00 +38°C° 0 mm 3 mps 732 mmHg 12%
    11:00 +40°C° 0 mm 3 mps 732 mmHg 11%
    12:00 +43°C° 0 mm 3 mps 731 mmHg 10%
    13:00 +43°C° 0 mm 3 mps 731 mmHg 10%
    14:00 +43°C° 0 mm 3 mps 730 mmHg 10%
    15:00 +43°C° 0 mm 3 mps 729 mmHg 11%
    16:00 +40°C° 0 mm 3 mps 730 mmHg 13%
    17:00 +37°C° 0 mm 2 mps 730 mmHg 15%
    18:00 +35°C° 0 mm 2 mps 730 mmHg 17%
    19:00 +33°C° 0 mm 1 mps 730 mmHg 19%
    20:00 +32°C° 0 mm 1 mps 731 mmHg 20%
    21:00 +31°C° 0 mm 1 mps 731 mmHg 21%
    22:00 +30°C° 0 mm 1 mps 731 mmHg 22%
    23:00 +29°C° 0 mm 1 mps 731 mmHg 23%

    22 November, Friday

    Time Temperature Precipitation Wind Pressure Humidity
    00:00 +29°C° 0 mm 1 mps 731 mmHg 24%
    01:00 +28°C° 0 mm 1 mps 731 mmHg 24%
    02:00 +27°C° 0 mm 1 mps 731 mmHg 24%
    03:00 +27°C° 0 mm 1 mps 731 mmHg 25%
    04:00 +26°C° 0 mm 1 mps 731 mmHg 25%
    05:00 +26°C° 0 mm 1 mps 731 mmHg 26%
    06:00 +23°C° 0 mm 0 mps 732 mmHg 26%
    07:00 +29°C° 0 mm 1 mps 732 mmHg 23%
    08:00 +32°C° 0 mm 1 mps 733 mmHg 19%
    09:00 +35°C° 0 mm 1 mps 733 mmHg 16%
    10:00 +37°C° 0 mm 1 mps 733 mmHg 14%
    11:00 +41°C° 0 mm 1 mps 732 mmHg 13%
    12:00 +43°C° 0 mm 1 mps 732 mmHg 11%
    13:00 +43°C° 0 mm 1 mps 731 mmHg 11%
    14:00 +39°C° 0 mm 0 mps 730 mmHg 11%
    15:00 +39°C° 0 mm 0 mps 730 mmHg 12%
    16:00 +36°C° 0 mm 0 mps 730 mmHg 14%
    17:00 +34°C° 0 mm 0 mps 730 mmHg 16%
    18:00 +31°C° 0 mm 0 mps 730 mmHg 18%
    19:00 +30°C° 0 mm 0 mps 731 mmHg 19%
    20:00 +29°C° 0 mm 0 mps 731 mmHg 20%
    21:00 +31°C° 0 mm 1 mps 732 mmHg 21%
    22:00 +28°C° 0 mm 0 mps 732 mmHg 22%
    23:00 +27°C° 0 mm 0 mps 732 mmHg 24%
    Show more